Time,TemperatureF,DewpointF,PressureIn,WindDirection,WindDirectionDegrees,WindSpeedMPH,WindSpeedGustMPH,Humidity,HourlyPrecipIn,Conditions,Clouds,dailyrainin,SolarRadiationWatts/m^2,SoftwareType,DateUTC
2013-02-13 00:00:00,32.0,32.0,30.27,WSW,257,0.0,-999.0,97,0.00,,,-99.99,-0.900000,,2013-02-13 08:00:00,
2013-02-13 00:22:00,32.0,32.0,30.27,WSW,257,0.0,-999.0,97,0.00,,,-99.99,-0.900000,,2013-02-13 08:22:00,
2013-02-13 00:32:00,32.0,32.0,30.27,WSW,257,0.0,-999.0,97,0.00,,,-99.99,-0.900000,,2013-02-13 08:32:00,
2013-02-13 00:43:00,32.0,32.0,30.27,WSW,257,0.0,-999.0,97,0.00,,,-99.99,-0.900000,,2013-02-13 08:43:00,
2013-02-13 00:52:00,32.0,32.0,30.27,WSW,257,0.0,-999.0,97,0.00,,,-99.99,-0.900000,,2013-02-13 08:52:00,
2013-02-13 01:00:00,32.0,31.0,30.28,South,172,0.0,-999.0,95,0.00,,,-99.99,-1.500000,,2013-02-13 09:00:00,
2013-02-13 01:21:00,32.0,31.0,30.28,South,172,0.0,-999.0,95,0.00,,,-99.99,-1.500000,,2013-02-13 09:21:00,
2013-02-13 01:32:00,32.0,31.0,30.28,South,172,0.0,-999.0,95,0.00,,,-99.99,-1.500000,,2013-02-13 09:32:00,
2013-02-13 01:42:00,32.0,31.0,30.28,South,172,0.0,-999.0,95,0.00,,,-99.99,-1.500000,,2013-02-13 09:42:00,
2013-02-13 01:52:00,32.0,31.0,30.28,South,172,0.0,-999.0,95,0.00,,,-99.99,-1.500000,,2013-02-13 09:52:00,
2013-02-13 02:00:00,31.0,30.0,30.28,NW,309,1.0,-999.0,95,0.00,,,-99.99,-2.300000,,2013-02-13 10:00:00,
2013-02-13 02:22:00,31.0,30.0,30.28,NW,309,1.0,-999.0,95,0.00,,,-99.99,-2.300000,,2013-02-13 10:22:00,
2013-02-13 02:32:00,31.0,30.0,30.28,NW,309,1.0,-999.0,95,0.00,,,-99.99,-2.300000,,2013-02-13 10:32:00,
2013-02-13 02:42:00,31.0,30.0,30.28,NW,309,1.0,-999.0,95,0.00,,,-99.99,-2.300000,,2013-02-13 10:42:00,
2013-02-13 02:52:00,31.0,30.0,30.28,NW,309,1.0,-999.0,95,0.00,,,-99.99,-2.300000,,2013-02-13 10:52:00,
2013-02-13 04:00:00,33.0,31.0,30.26,North,351,2.0,-999.0,90,0.00,,,-99.99,-2.300000,,2013-02-13 12:00:00,
2013-02-13 04:22:00,33.0,31.0,30.26,North,351,2.0,-999.0,90,0.00,,,-99.99,-2.300000,,2013-02-13 12:22:00,
2013-02-13 04:32:00,33.0,31.0,30.26,North,351,2.0,-999.0,90,0.00,,,-99.99,-2.300000,,2013-02-13 12:32:00,
2013-02-13 04:42:00,33.0,31.0,30.26,North,351,2.0,-999.0,90,0.00,,,-99.99,-2.300000,,2013-02-13 12:42:00,
2013-02-13 04:52:00,33.0,31.0,30.26,North,351,2.0,-999.0,90,0.00,,,-99.99,-2.300000,,2013-02-13 12:52:00,
2013-02-13 05:00:00,30.0,29.0,30.26,WNW,294,0.0,-999.0,96,0.00,,,-99.99,-2.300000,,2013-02-13 13:00:00,
2013-02-13 05:21:00,30.0,29.0,30.26,WNW,294,0.0,-999.0,96,0.00,,,-99.99,-2.300000,,2013-02-13 13:21:00,
2013-02-13 05:32:00,30.0,29.0,30.26,WNW,294,0.0,-999.0,96,0.00,,,-99.99,-2.300000,,2013-02-13 13:32:00,
2013-02-13 05:42:00,30.0,29.0,30.26,WNW,294,0.0,-999.0,96,0.00,,,-99.99,-2.300000,,2013-02-13 13:42:00,
2013-02-13 05:52:00,30.0,29.0,30.26,WNW,294,0.0,-999.0,96,0.00,,,-99.99,-2.300000,,2013-02-13 13:52:00,
2013-02-13 07:00:00,32.0,30.0,30.27,North,0,3.0,-999.0,92,0.00,,,-99.99,-1.400000,,2013-02-13 15:00:00,
2013-02-13 07:21:00,32.0,30.0,30.27,North,0,3.0,-999.0,92,0.00,,,-99.99,-1.400000,,2013-02-13 15:21:00,
2013-02-13 07:32:00,32.0,30.0,30.27,North,0,3.0,-999.0,92,0.00,,,-99.99,-1.400000,,2013-02-13 15:32:00,
2013-02-13 07:42:00,32.0,30.0,30.27,North,0,3.0,-999.0,92,0.00,,,-99.99,-1.400000,,2013-02-13 15:42:00,
2013-02-13 07:52:00,32.0,30.0,30.27,North,0,3.0,-999.0,92,0.00,,,-99.99,-1.400000,,2013-02-13 15:52:00,
2013-02-13 08:00:00,34.0,30.0,30.27,North,1,2.0,-999.0,87,0.00,,,-99.99,15.800000,,2013-02-13 16:00:00,
2013-02-13 08:21:00,34.0,30.0,30.27,North,1,2.0,-999.0,87,0.00,,,-99.99,15.800000,,2013-02-13 16:21:00,
2013-02-13 08:32:00,34.0,30.0,30.27,North,1,2.0,-999.0,87,0.00,,,-99.99,15.800000,,2013-02-13 16:32:00,
2013-02-13 08:42:00,34.0,30.0,30.27,North,1,2.0,-999.0,87,0.00,,,-99.99,15.800000,,2013-02-13 16:42:00,
2013-02-13 08:52:00,34.0,30.0,30.27,North,1,2.0,-999.0,87,0.00,,,-99.99,15.800000,,2013-02-13 16:52:00,
2013-02-13 09:00:00,39.0,32.0,30.26,NNE,14,2.0,-999.0,76,0.00,,,-99.99,84.599998,,2013-02-13 17:00:00,
2013-02-13 09:21:00,39.0,32.0,30.26,NNE,14,2.0,-999.0,76,0.00,,,-99.99,84.599998,,2013-02-13 17:21:00,
2013-02-13 09:32:00,39.0,32.0,30.26,NNE,14,2.0,-999.0,76,0.00,,,-99.99,84.599998,,2013-02-13 17:32:00,
2013-02-13 09:42:00,39.0,32.0,30.26,NNE,14,2.0,-999.0,76,0.00,,,-99.99,84.599998,,2013-02-13 17:42:00,
2013-02-13 09:52:00,39.0,32.0,30.26,NNE,14,2.0,-999.0,76,0.00,,,-99.99,84.599998,,2013-02-13 17:52:00,
2013-02-13 10:00:00,51.0,38.0,30.28,WSW,237,1.0,-999.0,58,0.00,,,-99.99,419.799988,,2013-02-13 18:00:00,
2013-02-13 10:23:00,51.0,38.0,30.28,WSW,237,1.0,-999.0,58,0.00,,,-99.99,419.799988,,2013-02-13 18:23:00,
2013-02-13 10:32:00,51.0,38.0,30.28,WSW,237,1.0,-999.0,58,0.00,,,-99.99,419.799988,,2013-02-13 18:32:00,
2013-02-13 10:42:00,51.0,38.0,30.28,WSW,237,1.0,-999.0,58,0.00,,,-99.99,419.799988,,2013-02-13 18:42:00,
2013-02-13 10:52:00,51.0,38.0,30.28,WSW,237,1.0,-999.0,58,0.00,,,-99.99,419.799988,,2013-02-13 18:52:00,
2013-02-13 12:00:00,57.0,35.0,30.27,SE,125,2.0,-999.0,42,0.00,,,-99.99,615.200012,,2013-02-13 20:00:00,
2013-02-13 12:22:00,57.0,35.0,30.27,SE,125,2.0,-999.0,42,0.00,,,-99.99,615.200012,,2013-02-13 20:22:00,
2013-02-13 12:32:00,57.0,35.0,30.27,SE,125,2.0,-999.0,42,0.00,,,-99.99,615.200012,,2013-02-13 20:32:00,
2013-02-13 12:42:00,57.0,35.0,30.27,SE,125,2.0,-999.0,42,0.00,,,-99.99,615.200012,,2013-02-13 20:42:00,
2013-02-13 12:52:00,57.0,35.0,30.27,SE,125,2.0,-999.0,42,0.00,,,-99.99,615.200012,,2013-02-13 20:52:00,
2013-02-13 13:00:00,59.0,37.0,30.24,SSE,153,2.0,-999.0,43,0.00,,,-99.99,633.299988,,2013-02-13 21:00:00,
2013-02-13 13:21:00,59.0,37.0,30.24,SSE,153,2.0,-999.0,43,0.00,,,-99.99,633.299988,,2013-02-13 21:21:00,
2013-02-13 13:32:00,59.0,37.0,30.24,SSE,153,2.0,-999.0,43,0.00,,,-99.99,633.299988,,2013-02-13 21:32:00,
2013-02-13 13:42:00,59.0,37.0,30.24,SSE,153,2.0,-999.0,43,0.00,,,-99.99,633.299988,,2013-02-13 21:42:00,
2013-02-13 13:52:00,59.0,37.0,30.24,SSE,153,2.0,-999.0,43,0.00,,,-99.99,633.299988,,2013-02-13 21:52:00,
2013-02-13 15:00:00,58.0,39.0,30.21,SW,229,3.0,-999.0,49,0.00,,,-99.99,346.500000,,2013-02-13 23:00:00,
2013-02-13 15:22:00,58.0,39.0,30.21,SW,229,3.0,-999.0,49,0.00,,,-99.99,346.500000,,2013-02-13 23:22:00,
2013-02-13 15:32:00,58.0,39.0,30.21,SW,229,3.0,-999.0,49,0.00,,,-99.99,346.500000,,2013-02-13 23:32:00,
2013-02-13 15:42:00,58.0,39.0,30.21,SW,229,3.0,-999.0,49,0.00,,,-99.99,346.500000,,2013-02-13 23:42:00,
2013-02-13 15:52:00,58.0,39.0,30.21,SW,229,3.0,-999.0,49,0.00,,,-99.99,346.500000,,2013-02-13 23:52:00,
2013-02-13 16:00:00,56.0,40.0,30.20,SW,229,1.0,-999.0,55,0.00,,,-99.99,153.600006,,2013-02-14 00:00:00,
2013-02-13 16:22:00,56.0,40.0,30.20,SW,229,1.0,-999.0,55,0.00,,,-99.99,153.600006,,2013-02-14 00:22:00,
2013-02-13 16:32:00,56.0,40.0,30.20,SW,229,1.0,-999.0,55,0.00,,,-99.99,153.600006,,2013-02-14 00:32:00,
2013-02-13 16:42:00,56.0,40.0,30.20,SW,229,1.0,-999.0,55,0.00,,,-99.99,153.600006,,2013-02-14 00:42:00,
2013-02-13 16:52:00,56.0,40.0,30.20,SW,229,1.0,-999.0,55,0.00,,,-99.99,153.600006,,2013-02-14 00:52:00,
2013-02-13 18:00:00,46.0,40.0,30.20,NW,306,1.0,-999.0,79,0.00,,,-99.99,7.800000,,2013-02-14 02:00:00,
2013-02-13 18:21:00,46.0,40.0,30.20,NW,306,1.0,-999.0,79,0.00,,,-99.99,7.800000,,2013-02-14 02:21:00,
2013-02-13 18:32:00,46.0,40.0,30.20,NW,306,1.0,-999.0,79,0.00,,,-99.99,7.800000,,2013-02-14 02:32:00,
2013-02-13 18:42:00,46.0,40.0,30.20,NW,306,1.0,-999.0,79,0.00,,,-99.99,7.800000,,2013-02-14 02:42:00,
2013-02-13 18:51:00,46.0,40.0,30.20,NW,306,1.0,-999.0,79,0.00,,,-99.99,7.800000,,2013-02-14 02:51:00,
2013-02-13 19:00:00,42.0,38.0,30.20,North,0,0.0,-999.0,86,0.00,,,-99.99,-1.900000,,2013-02-14 03:00:00,
2013-02-13 19:22:00,42.0,38.0,30.20,North,0,0.0,-999.0,86,0.00,,,-99.99,-1.900000,,2013-02-14 03:22:00,
2013-02-13 19:32:00,42.0,38.0,30.20,North,0,0.0,-999.0,86,0.00,,,-99.99,-1.900000,,2013-02-14 03:32:00,
2013-02-13 19:42:00,42.0,38.0,30.20,North,0,0.0,-999.0,86,0.00,,,-99.99,-1.900000,,2013-02-14 03:42:00,
2013-02-13 19:52:00,42.0,38.0,30.20,North,0,0.0,-999.0,86,0.00,,,-99.99,-1.900000,,2013-02-14 03:52:00,
2013-02-13 20:00:00,39.0,36.0,30.20,ESE,113,0.0,-999.0,91,0.00,,,-99.99,-1.300000,,2013-02-14 04:00:00,
2013-02-13 20:21:00,39.0,36.0,30.20,ESE,113,0.0,-999.0,91,0.00,,,-99.99,-1.300000,,2013-02-14 04:21:00,
2013-02-13 20:32:00,39.0,36.0,30.20,ESE,113,0.0,-999.0,91,0.00,,,-99.99,-1.300000,,2013-02-14 04:32:00,
2013-02-13 20:42:00,39.0,36.0,30.20,ESE,113,0.0,-999.0,91,0.00,,,-99.99,-1.300000,,2013-02-14 04:42:00,
2013-02-13 20:51:00,39.0,36.0,30.20,ESE,113,0.0,-999.0,91,0.00,,,-99.99,-1.300000,,2013-02-14 04:51:00,
2013-02-13 21:00:00,37.0,36.0,30.20,North,0,0.0,-999.0,94,0.00,,,-99.99,-1.300000,,2013-02-14 05:00:00,
2013-02-13 21:22:00,37.0,36.0,30.20,North,0,0.0,-999.0,94,0.00,,,-99.99,-1.300000,,2013-02-14 05:22:00,
2013-02-13 21:32:00,37.0,36.0,30.20,North,0,0.0,-999.0,94,0.00,,,-99.99,-1.300000,,2013-02-14 05:32:00,
2013-02-13 21:42:00,37.0,36.0,30.20,North,0,0.0,-999.0,94,0.00,,,-99.99,-1.300000,,2013-02-14 05:42:00,
2013-02-13 21:52:00,37.0,36.0,30.20,North,0,0.0,-999.0,94,0.00,,,-99.99,-1.300000,,2013-02-14 05:52:00,
2013-02-13 22:00:00,43.0,38.0,30.19,NNE,24,4.0,-999.0,81,0.00,,,-99.99,-0.900000,,2013-02-14 06:00:00,
2013-02-13 22:22:00,43.0,38.0,30.19,NNE,24,4.0,-999.0,81,0.00,,,-99.99,-0.900000,,2013-02-14 06:22:00,
2013-02-13 22:32:00,43.0,38.0,30.19,NNE,24,4.0,-999.0,81,0.00,,,-99.99,-0.900000,,2013-02-14 06:32:00,
2013-02-13 22:42:00,43.0,38.0,30.19,NNE,24,4.0,-999.0,81,0.00,,,-99.99,-0.900000,,2013-02-14 06:42:00,
2013-02-13 22:52:00,43.0,38.0,30.19,NNE,24,4.0,-999.0,81,0.00,,,-99.99,-0.900000,,2013-02-14 06:52:00,
2013-02-13 23:00:00,43.0,35.0,30.20,NE,40,4.0,-999.0,72,0.00,,,-99.99,-3.800000,,2013-02-14 07:00:00,
2013-02-13 23:21:00,43.0,35.0,30.20,NE,40,4.0,-999.0,72,0.00,,,-99.99,-3.800000,,2013-02-14 07:21:00,
2013-02-13 23:32:00,43.0,35.0,30.20,NE,40,4.0,-999.0,72,0.00,,,-99.99,-3.800000,,2013-02-14 07:32:00,
2013-02-13 23:42:00,43.0,35.0,30.20,NE,40,4.0,-999.0,72,0.00,,,-99.99,-3.800000,,2013-02-14 07:42:00,
2013-02-13 23:52:00,43.0,35.0,30.20,NE,40,4.0,-999.0,72,0.00,,,-99.99,-3.800000,,2013-02-14 07:52:00,